Terminal Aerodrome Forecast
Issued by NWS

Home | Current Version | Previous Version | Graphics & Text | Print | Product List | Glossary On
Versions: 1 2 3 4 5 6 7 8 9 10 11 12 13 14 15 16 17 18
000
FTUS42 KMHX 112300
TAFOAJ
TAF
KOAJ 112320Z 1200/1224 24003KT P6SM VCSH OVC040
     FM120700 29003KT 4SM BR OVC005
     FM120900 02003KT 2SM BR OVC005
     FM121300 03005KT P6SM BKN030
     FM121600 08007KT P6SM SCT040
      AMD LTD TO CLD VIS AND WIND=

USA.gov is the U.S. government's official web portal to all federal, state and local government web resources and services.